User: anonymous   Login
Location: Long Point Provincial Park
(42.5794°N, 80.4103°W)
Time: 00:21:33
(UTC-04:00)
Language:

Iridium 19 - Orbit

View from above orbital plane
View from above orbital plane
View from above satellite
View from above satellite

Ground track
Ground track

The orbit data is extracted from the following two-line orbital elements,

1 24965U 97056A   15216.50729769  .00000015  00000-0 -18802-5 0  9994
2 24965 086.3937 244.0264 0002319 092.1538 267.9924 14.34217976934705
Epoch (UTC): 04 August 2015 12:10:30
Eccentricity: 0.0002319
inclination: 86.3937°
perigee height: 776 km
apogee height: 779 km
right ascension of ascending node: 244.0264°
argument of perigee: 92.1538°
revolutions per day: 14.34217976
mean anomaly at epoch: 267.9924°
orbit number at epoch: 93470

The dashed part of the orbit path shows where the satellite is in the earth's shadow,  

DLR